Sigfox identifier Datetime Temperature Humidity SNR
002F1F8F 2019-06-03 16:06:26 20.7 43 19.2
002F1F8F 2019-06-03 14:58:59 20.1 45 18.6
002F1F8F 2019-06-03 13:51:32 18.9 48 18.5
002F1F8F 2019-06-03 12:44:04 17.2 49 18.6
002F1F8F 2019-06-03 11:36:34 15.5 50 18.3
002F1F8F 2019-06-03 10:29:05 13.5 48 18.4
002F1F8F 2019-06-03 09:21:26 11.8 46 18.3
002F1F8F 2019-06-03 08:13:50 10.6 45 18.3
002F1F8F 2019-06-03 07:06:13 9.8 43 18.2
002F1F8F 2019-06-03 05:58:34 10.2 42 20.2
002F1F8F 2019-06-03 04:50:56 11.2 43 20.2
002F1F8F 2019-06-03 03:43:18 12.3 43 20.2
002F1F8F 2019-06-03 02:35:42 13.3 44 20.2
002F1F8F 2019-06-03 01:28:10 14.6 44 20.2
002F1F8F 2019-06-03 00:20:37 16.1 46 20.4
002F1F8F 2019-06-02 23:13:07 17.4 47 20.4
002F1F8F 2019-06-02 22:05:37 18.7 49 20.4
002F1F8F 2019-06-02 20:58:07 19.3 51 20.4
002F1F8F 2019-06-02 19:50:39 19.4 51 20.4
002F1F8F 2019-06-02 18:43:08 18.7 52 20.4
002F1F8F 2019-06-02 17:35:38 17.4 50 20.4
002F1F8F 2019-06-02 16:28:05 15.9 49 20.5
002F1F8F 2019-06-02 15:20:31 14.4 47 20.5
002F1F8F 2019-06-02 14:12:54 13.6 45 20.6
002F1F8F 2019-06-02 13:05:13 13.1 44 20.7
002F1F8F 2019-06-02 11:57:33 13.1 44 19.1
002F1F8F 2019-06-02 10:49:52 12.9 43 19.5
002F1F8F 2019-06-02 09:42:13 12.7 42 19.6
002F1F8F 2019-06-02 08:34:33 12.5 42 19.9
002F1F8F 2019-06-02 07:27:00 12.5 41 20
002F1F8F 2019-06-02 06:19:27 12.7 41 20.4
002F1F8F 2019-06-02 05:11:53 12.9 40 20.6
002F1F8F 2019-06-02 04:04:15 13.1 40 20.8
002F1F8F 2019-06-02 02:56:40 13.3 39 21
002F1F8F 2019-06-02 01:49:07 13.8 39 19.5
002F1F8F 2019-06-02 00:41:35 14.5 39 19.6
002F1F8F 2019-06-01 23:34:06 15.4 39 19.7
002F1F8F 2019-06-01 22:26:38 16.3 38 19.8
002F1F8F 2019-06-01 21:19:09 17.3 39 19.9
002F1F8F 2019-06-01 20:11:44 18.5 39 19.8
002F1F8F 2019-06-01 19:04:17 19.3 40 20.8
002F1F8F 2019-06-01 17:56:54 19.6 40 21.3
002F1F8F 2019-06-01 16:49:27 19.5 40 21.5
002F1F8F 2019-06-01 15:42:00 19.5 39 22.1
002F1F8F 2019-06-01 14:34:31 18.9 39 22.6
002F1F8F 2019-06-01 13:27:03 18 38 23
002F1F8F 2019-06-01 12:19:33 17.6 37 23.3
002F1F8F 2019-06-01 11:12:04 17.6 36 23.4
002F1F8F 2019-06-01 10:04:34 17.6 34 23.8
002F1F8F 2019-06-01 08:57:06 18.4 34 24.1
002F1F8F 2019-06-01 07:49:37 18.8 33 24.3
002F1F8F 2019-06-01 06:42:10 18.9 33 24.6
002F1F8F 2019-06-01 05:34:44 18.9 32 24.7
002F1F8F 2019-06-01 04:27:17 18.9 32 25
002F1F8F 2019-06-01 03:19:49 18.9 32 25.3
002F1F8F 2019-06-01 02:12:21 18.9 31 25.3
002F1F8F 2019-06-01 01:04:51 18.9 31 25.3
002F1F8F 2019-05-31 23:57:24 18.9 31 25.5
002F1F8F 2019-05-31 22:49:59 19.1 31 25.7
002F1F8F 2019-05-31 21:42:31 19.5 31 25.8
002F1F8F 2019-05-31 20:35:04 19.9 32 26.1
002F1F8F 2019-05-31 19:27:35 20 33 26.2
002F1F8F 2019-05-31 18:20:09 20.2 34 26.4
002F1F8F 2019-05-31 17:12:45 21 35 26.6
002F1F8F 2019-05-31 16:05:24 21.4 36 26.7
002F1F8F 2019-05-31 14:57:55 20.9 37 26.7
002F1F8F 2019-05-31 13:50:26 21 38 26.7
002F1F8F 2019-05-31 12:42:57 21.2 38 26.8
002F1F8F 2019-05-31 11:35:27 21 37 26.7
002F1F8F 2019-05-31 10:27:58 21 37 26.8
002F1F8F 2019-05-31 09:20:27 20.8 36 26.8
002F1F8F 2019-05-31 08:12:59 20.7 35 26.9
002F1F8F 2019-05-31 07:05:30 20.6 35 27
002F1F8F 2019-05-31 05:58:00 20.6 35 27
002F1F8F 2019-05-31 04:50:33 20.6 34 27.1
002F1F8F 2019-05-31 03:43:08 20.6 34 27
002F1F8F 2019-05-31 02:35:43 20.6 35 26.9
002F1F8F 2019-05-31 01:28:18 20.6 35 26.9
002F1F8F 2019-05-31 00:20:52 20.6 35 26.8
002F1F8F 2019-05-30 23:13:28 20.6 35 26.8
002F1F8F 2019-05-30 22:06:04 20.6 35 26.8
002F1F8F 2019-05-30 20:58:36 20.5 35 27
002F1F8F 2019-05-30 19:51:09 20.4 35 26.9
002F1F8F 2019-05-30 18:43:40 20.4 36 26.8
002F1F8F 2019-05-30 17:36:12 20.3 36 26.8
002F1F8F 2019-05-30 16:28:45 20.3 37 26.8
002F1F8F 2019-05-30 15:21:15 20.4 37 26.7
002F1F8F 2019-05-30 14:13:44 20.4 38 26.7
002F1F8F 2019-05-30 13:06:15 20.5 38 26.6
002F1F8F 2019-05-30 11:58:45 20.6 39 26.6
002F1F8F 2019-05-30 10:51:16 20.6 39 26.6
002F1F8F 2019-05-30 09:43:46 20.6 39 26.6
002F1F8F 2019-05-30 08:36:18 20.6 39 26.6
002F1F8F 2019-05-30 07:28:52 20.6 40 26.6
002F1F8F 2019-05-30 06:21:24 20.6 40 26.5
002F1F8F 2019-05-30 05:13:55 20.6 41 26.5
002F1F8F 2019-05-30 04:06:28 20.6 41 26.6
002F1F8F 2019-05-30 02:59:02 20.7 42 26.5
002F1F8F 2019-05-30 01:51:34 20.8 42 26.4
002F1F8F 2019-05-30 00:44:05 20.8 43 26.5
002F1F8F 2019-05-29 23:36:36 21 43 26.5
002F1F8F 2019-05-29 22:29:09 21 44 26.7
002F1F8F 2019-05-29 21:21:41 21 45 26.6
002F1F8F 2019-05-29 20:14:15 21 45 26.6
002F1F8F 2019-05-29 19:06:52 21.1 46 26.6
002F1F8F 2019-05-29 17:59:27 21.4 47 26.6
002F1F8F 2019-05-29 16:52:01 21.9 48 26.6
002F1F8F 2019-05-29 15:44:36 22.3 49 26.7
002F1F8F 2019-05-29 14:37:11 22.7 45 26.6
002F1F8F 2019-05-29 13:29:45 22.3 47 26.6
002F1F8F 2019-05-29 12:22:20 22.3 47 26.6
002F1F8F 2019-05-29 11:14:55 21.9 49 26.7
002F1F8F 2019-05-29 10:07:33 21.5 51 26.6
002F1F8F 2019-05-29 09:00:11 21.2 50 26.5
002F1F8F 2019-05-29 07:52:47 21.2 49 26.6
002F1F8F 2019-05-29 06:45:23 21.3 47 26.6
002F1F8F 2019-05-29 05:38:02 21.3 47 26.6
002F1F8F 2019-05-29 04:30:37 21.4 47 26.6
002F1F8F 2019-05-29 03:23:11 21.4 47 26.5
002F1F8F 2019-05-29 02:15:48 21.4 47 26.4
002F1F8F 2019-05-29 01:08:23 21.4 47 26.4
002F1F8F 2019-05-29 00:00:55 21.4 47 26.3
002F1F8F 2019-05-28 22:53:29 21.5 46 26.4
002F1F8F 2019-05-28 21:46:03 21.5 46 26.2
002F1F8F 2019-05-28 20:38:37 21.7 46 26.5
002F1F8F 2019-05-28 19:31:11 21.9 45 26.5
002F1F8F 2019-05-28 18:23:43 22.1 44 26.5
002F1F8F 2019-05-28 17:16:17 22.3 45 26.6
002F1F8F 2019-05-28 16:08:52 22.7 44 26.6
002F1F8F 2019-05-28 15:01:26 22.5 45 26.7
002F1F8F 2019-05-28 13:54:00 22.3 45 26.6
002F1F8F 2019-05-28 12:46:35 21.8 46 26.7
002F1F8F 2019-05-28 11:39:10 21.7 45 26.7
002F1F8F 2019-05-28 10:31:41 21.5 45 26.8
002F1F8F 2019-05-28 09:24:14 21.2 46 26.8
002F1F8F 2019-05-28 08:16:50 21 46 26.9
002F1F8F 2019-05-28 07:09:24 21.3 43 26.7
002F1F8F 2019-05-28 06:01:58 21.2 42 26.8
002F1F8F 2019-05-28 04:54:33 21.3 42 26.9
002F1F8F 2019-05-28 03:47:10 21.3 42 26.8
002F1F8F 2019-05-28 02:39:46 21.3 41 26.9
002F1F8F 2019-05-28 01:32:19 21.3 41 26.9
002F1F8F 2019-05-28 00:24:55 21.4 41 26.9
002F1F8F 2019-05-27 23:17:30 21.4 40 27.1
002F1F8F 2019-05-27 22:10:04 21.6 40 27.3
002F1F8F 2019-05-27 21:02:38 21.8 40 27.3
002F1F8F 2019-05-27 19:55:15 21.9 39 27.5
002F1F8F 2019-05-27 18:47:52 21.8 38 27.5
002F1F8F 2019-05-27 17:40:31 22.2 38 27.7
002F1F8F 2019-05-27 16:33:08 22.3 41 27.2
002F1F8F 2019-05-27 15:25:45 22.1 41 27.2
002F1F8F 2019-05-27 14:18:17 21.9 42 26.7
002F1F8F 2019-05-27 13:10:54 21.6 44 26.8
002F1F8F 2019-05-27 12:03:33 21.5 44 27.7
002F1F8F 2019-05-27 10:56:08 21.7 46 22.5
002F1F8F 2019-05-27 10:39:16 21.7 51 0